UAL850 EFHK-KDEN

Flight info

Callsign UAL850
Flight time N/A
Altitude 34000
Route NEPEK DCT NISVI DCT EKNAG DCT NEBUR DCT OGPAR DCT 70N000E/M082F340 71N010W DCT 7220N DCT 72N030W DCT 7240N DCT 7150N/M083F360 DCT BOPUT/N0479F360 DCT YZS J530 YYQ J89 YGX/N0485F380 DCT YDN DCT MOT DCT BFF LANDR3
Aircraft B77W/H-SDE1E2E3FGHIJ2J3J4J5M1RWXY/LB1D1

Departure

Time 2026-05-04 15:10
Airport Helsinki Vantaa Airport (EFHK)

Arrival

Time N/A
Airport Denver International Airport (KDEN)
Time Latitude Longitude Altitude Speed Heading
2026-05-04 14:47 60.31558 24.95814 187 ft 0 kts 138°
2026-05-04 14:56 60.31570 24.95792 187 ft 2 kts 137°
2026-05-04 14:56 60.31583 24.95769 186 ft 2 kts 137°
2026-05-04 14:57 60.31596 24.95746 186 ft 2 kts 132°
2026-05-04 14:57 60.31604 24.95708 185 ft 2 kts 88°
2026-05-04 14:57 60.31598 24.95668 186 ft 2 kts 51°
2026-05-04 14:57 60.31581 24.95641 186 ft 2 kts 43°
2026-05-04 14:58 60.31572 24.95619 187 ft 0 kts 54°
2026-05-04 14:58 60.31568 24.95610 187 ft 1 kts 48°
2026-05-04 14:58 60.31567 24.95607 187 ft 0 kts 48°
2026-05-04 15:01 60.31577 24.95629 186 ft 3 kts 45°
2026-05-04 15:01 60.31616 24.95666 185 ft 6 kts
2026-05-04 15:01 60.31667 24.95604 183 ft 8 kts 314°
2026-05-04 15:01 60.31717 24.95546 183 ft 7 kts 359°
2026-05-04 15:02 60.31761 24.95592 183 ft 6 kts 45°
2026-05-04 15:02 60.31792 24.95659 183 ft 5 kts 47°
2026-05-04 15:02 60.31827 24.95736 183 ft 8 kts 48°
2026-05-04 15:02 60.31876 24.95844 184 ft 9 kts 47°
2026-05-04 15:03 60.31919 24.95932 185 ft 6 kts 31°
2026-05-04 15:03 60.31958 24.95943 187 ft 5 kts 348°
2026-05-04 15:03 60.32012 24.95868 188 ft 10 kts 317°
2026-05-04 15:03 60.32080 24.95743 191 ft 11 kts 317°
2026-05-04 15:04 60.32148 24.95617 195 ft 11 kts 317°
2026-05-04 15:04 60.32219 24.95489 197 ft 12 kts 319°
2026-05-04 15:04 60.32294 24.95348 199 ft 12 kts 316°
2026-05-04 15:04 60.32362 24.95256 199 ft 10 kts 338°
2026-05-04 15:05 60.32424 24.95216 199 ft 8 kts 342°
2026-05-04 15:05 60.32479 24.95181 199 ft 7 kts 342°
2026-05-04 15:05 60.32539 24.95142 199 ft 9 kts 342°
2026-05-04 15:05 60.32621 24.95089 199 ft 12 kts 342°
2026-05-04 15:06 60.32709 24.95031 201 ft 10 kts 342°
2026-05-04 15:06 60.32765 24.94993 203 ft 6 kts 342°
2026-05-04 15:06 60.32807 24.94966 204 ft 6 kts 342°
2026-05-04 15:07 60.32908 24.94881 207 ft 7 kts 325°
2026-05-04 15:07 60.32945 24.94819 207 ft 5 kts 317°
2026-05-04 15:07 60.32974 24.94764 207 ft 5 kts 317°
2026-05-04 15:07 60.33012 24.94694 207 ft 7 kts 316°
2026-05-04 15:08 60.33052 24.94611 207 ft 6 kts 316°
2026-05-04 15:08 60.33087 24.94550 208 ft 4 kts 320°
2026-05-04 15:08 60.33109 24.94512 208 ft 4 kts 317°
2026-05-04 15:08 60.33129 24.94459 209 ft 4 kts 288°
2026-05-04 15:09 60.33119 24.94400 208 ft 5 kts 236°
2026-05-04 15:09 60.33110 24.94379 208 ft 0 kts 227°
2026-05-04 15:10 60.32335 24.92671 193 ft 163 kts 227°
2026-05-04 15:10 60.31360 24.90611 735 ft 197 kts 227°
2026-05-04 15:10 60.29916 24.85515 2112 ft 214 kts 276°
2026-05-04 15:11 60.30530 24.82582 2473 ft 232 kts 303°
2026-05-04 15:11 60.31368 24.79544 3115 ft 243 kts 294°
2026-05-04 15:11 60.32108 24.76428 3917 ft 248 kts 297°
2026-05-04 15:11 60.32942 24.73340 4801 ft 249 kts 298°
2026-05-04 15:12 60.33862 24.70009 5710 ft 251 kts 298°
2026-05-04 15:12 60.34760 24.66762 6561 ft 254 kts 297°
2026-05-04 15:12 60.35781 24.63522 7461 ft 258 kts 310°
2026-05-04 15:12 60.37456 24.61149 8216 ft 272 kts 335°
2026-05-04 15:13 60.39335 24.60242 8924 ft 281 kts 345°
2026-05-04 15:13 60.41415 24.59591 9727 ft 284 kts 345°
2026-05-04 15:13 60.43483 24.58928 10188 ft 299 kts 345°
2026-05-04 15:13 60.45789 24.58159 10570 ft 318 kts 345°
2026-05-04 15:14 60.48083 24.57390 10998 ft 335 kts 345°
2026-05-04 15:14 60.50760 24.56490 11448 ft 354 kts 345°
2026-05-04 15:14 60.53356 24.55616 11915 ft 369 kts 346°
2026-05-04 15:14 60.55926 24.54751 12512 ft 380 kts 346°
2026-05-04 15:15 60.58532 24.53874 13239 ft 386 kts 345°
2026-05-04 15:15 60.61154 24.52991 14054 ft 388 kts 345°
2026-05-04 15:15 60.63938 24.52050 14835 ft 393 kts 345°
2026-05-04 15:16 60.69398 24.50197 16171 ft 407 kts 345°
2026-05-04 15:16 60.72181 24.49218 16844 ft 410 kts 342°
2026-05-04 15:16 60.77408 24.45002 18138 ft 408 kts 326°
2026-05-04 15:17 60.79884 24.42221 18870 ft 411 kts 325°
2026-05-04 15:17 60.84926 24.36516 20271 ft 418 kts 325°
2026-05-04 15:17 60.87438 24.33666 20893 ft 423 kts 324°
2026-05-04 15:18 60.90039 24.30712 21569 ft 426 kts 324°